Dewpoint
52 56 58 59 61 64 65 65 65 65 67 67 66 64 59 58 59 59 57 55 53 50 50 51 49 48 49 49 51 49 49 48
51 58 59 61 64 64 66 65 65 66 65 64 60 54 53 52 51 50 48 48 48 47 44 46 48 48 51 52 49 46 46 47
50 57 58 60 63 65 66 66 66 65 64 62 60 56 51 48 47 48 48 48 49 47 47 47 48 46 48 47 45 40 36 38
48 55 57 59 61 64 65 65 65 64 64 59 54 51 46 42 43 43 46 47 48 46 45 44 43 40 39 39 37 34 31 30
45 52 55 59 60 63 65 66 65 62 59 54 49 45 41 38 40 42 44 46 45 44 42 41 40 36 35 33 31 33 33 27
44 50 53 57 60 62 63 64 59 54 52 51 46 42 40 39 40 44 44 45 43 41 39 39 37 33 33 33 33 32 31 31
45 48 51 56 58 58 54 54 50 49 48 46 42 39 37 36 39 41 40 39 39 39 37 37 36 37 37 38 39 37 37 36
46 48 51 54 56 55 49 46 44 43 44 41 40 39 36 37 39 35 34 35 36 39 38 40 38 41 42 42 41 40 39 38
46 48 51 52 54 52 45 40 39 40 39 37 36 36 36 37 34 34 33 33 35 40 39 39 39 39 40 40 39 37 38 39
46 48 50 52 50 46 41 38 38 37 36 37 37 38 37 35 37 37 36 37 34 37 38 38 39 40 40 40 38 39 40 40
45 48 50 49 47 40 39 37 36 36 37 37 38 36 36 36 35 34 35 38 38 38 38 38 38 37 37 38 37 37 38 38
44 47 48 47 44 40 37 35 33 34 36 34 34 33 33 34 35 37 38 38 36 36 36 37 36 36 36 37 37 37 37 37
44 46 46 45 41 39 37 34 32 34 32 32 33 33 34 35 36 37 38 36 36 36 36 35 35 35 37 37 37 37 37 37
43 44 44 42 40 37 34 33 31 29 29 32 33 34 34 35 35 35 35 35 35 35 35 36 36 38 36 37 36 36 36 36
42 43 42 40 38 35 33 30 29 28 30 31 33 34 34 35 35 35 36 35 34 35 36 36 37 36 35 35 35 36 36 36
41 41 40 39 36 32 30 28 28 28 29 31 34 35 35 35 35 35 35 35 34 35 35 35 36 35 33 34 34 34 35 35
39 39 39 38 34 30 27 28 29 29 31 31 33 33 33 33 34 34 35 35 35 35 35 35 35 34 35 35 34 32 33 33
37 38 38 36 32 28 27 29 30 30 30 31 31 31 31 32 33 33 34 34 35 35 35 35 35 35 35 34 35 31 32 33
36 37 37 34 30 27 29 30 30 30 29 29 30 30 30 32 33 33 34 34 34 35 35 35 35 35 34 33 33 31 31 31
Wind_Speed
19 17 16 16 18 21 21 21 21 20 15 14 12 13 12 12 12 11 10 10 9 7 6 4 0 0 1 4 6 7 8 10
19 17 16 16 18 22 23 23 22 19 17 17 15 15 14 13 11 11 10 9 7 5 4 3 2 4 5 5 6 7 10 10
21 21 19 19 20 21 24 24 25 22 19 16 16 15 12 13 11 10 9 8 7 6 4 4 4 3 4 6 8 8 8 10
27 26 24 21 22 23 24 26 25 22 22 16 16 13 13 12 11 10 8 8 7 6 5 5 4 4 5 5 6 8 10 9
29 29 26 24 22 20 22 22 25 19 23 23 24 19 18 13 12 10 9 8 7 6 5 4 4 4 4 4 6 7 7 10
31 32 28 24 22 21 20 22 23 24 19 22 22 18 15 14 13 13 10 9 7 6 4 4 3 2 3 4 6 7 9 10
28 27 25 24 22 22 22 24 21 21 22 20 18 21 19 16 14 13 11 8 7 5 3 1 1 2 4 6 7 9 9 11
26 29 28 27 27 25 22 23 23 19 19 18 20 19 16 15 15 11 10 7 6 4 1 1 3 4 6 7 8 10 12 13
27 30 28 27 27 27 26 25 23 21 20 21 19 18 14 13 11 10 8 6 4 2 1 2 4 5 6 7 9 10 11 12
26 27 27 25 27 28 27 25 23 22 23 20 18 16 16 14 12 10 8 6 4 2 0 2 3 3 4 6 8 10 11 12
24 26 27 26 27 28 25 24 25 22 22 20 18 17 15 14 12 10 7 6 4 2 2 2 4 5 7 8 10 11 12 13
23 25 27 27 28 29 28 25 26 25 22 20 20 18 16 13 11 9 7 5 2 1 3 5 6 7 8 9 10 10 11 12
22 25 27 29 31 31 30 27 26 24 21 20 18 17 15 13 10 8 5 3 1 2 5 6 5 5 6 7 8 8 10 12
23 27 30 31 32 31 30 28 26 24 22 21 19 16 14 12 9 6 4 3 3 5 5 4 4 4 5 6 8 10 11 13
24 27 30 32 32 32 30 28 26 24 22 21 19 16 13 11 8 5 4 3 5 4 3 2 2 3 4 6 8 10 12 13
26 29 31 33 33 31 30 28 27 25 23 21 18 15 12 10 8 6 5 4 4 3 3 1 1 2 4 8 10 13 15 16
27 28 31 34 34 33 31 29 27 25 23 20 18 15 12 10 8 6 6 4 3 3 2 1 2 3 8 6 11 14 14 14
30 33 34 35 36 35 34 31 27 25 22 19 17 15 12 9 8 7 5 3 2 1 1 3 4 5 11 11 11 14 14 14
28 28 30 32 32 31 30 29 27 24 21 19 16 14 12 10 8 6 4 2 1 1 2 3 5 7 10 12 13 13 13 14
Wind_Direction
208 203 201 193 184 182 176 171 168 168 145 140 131 130 127 125 125 124 128 111 108 111 109 107 199 272 341 345 330 338 326 330
207 203 192 187 181 179 175 173 169 160 144 149 142 138 141 133 126 126 120 113 108 104 101 99 32 24 16 9 348 340 331 342
205 202 195 191 185 173 179 178 168 169 160 160 156 154 148 135 129 120 117 118 108 106 102 84 49 57 35 14 2 344 339 354
210 204 197 191 187 181 183 178 171 175 158 148 145 137 142 137 137 134 126 128 125 117 103 77 63 26 33 19 14 6 340 332
216 203 196 192 190 185 182 176 169 167 159 159 163 163 161 154 151 142 144 138 126 114 102 87 66 50 39 15 358 335 324 322
213 204 197 189 182 178 173 171 165 165 161 164 164 165 151 153 153 152 149 146 144 137 129 110 83 15 12 335 317 313 316 320
216 205 194 185 175 170 165 165 157 157 156 158 163 161 158 157 158 159 158 157 154 138 131 126 30 349 331 307 303 298 302 299
206 200 193 183 177 167 158 153 151 150 153 156 160 158 157 157 159 158 153 153 161 145 150 301 313 319 299 295 296 291 287 291
206 198 195 186 174 162 159 152 150 151 152 156 152 150 152 148 150 148 153 157 158 139 268 317 313 299 296 297 285 289 296 290
206 194 195 183 173 163 159 150 151 154 156 151 149 150 149 148 146 151 148 143 141 147 24 345 303 308 308 305 297 297 296 297
201 193 186 181 173 161 159 157 155 156 154 154 150 146 145 146 148 146 139 125 126 98 43 311 294 296 300 302 296 293 300 298
196 191 182 181 173 167 167 164 161 161 158 155 150 148 145 143 136 129 122 125 97 21 287 276 288 300 307 301 296 298 300 302
188 185 182 182 178 171 170 168 167 163 158 151 145 143 141 137 132 128 129 125 102 261 257 272 290 305 309 308 301 316 311 306
181 181 185 184 180 174 171 170 167 162 156 149 146 145 143 138 136 134 135 165 210 239 253 275 299 308 309 310 320 319 310 307
180 184 186 186 182 175 171 170 164 160 157 153 150 148 145 141 140 149 166 181 221 228 248 271 272 305 321 336 337 329 313 302
188 188 188 186 181 175 171 165 163 161 158 154 150 144 141 141 150 158 169 199 214 228 232 213 307 330 22 353 341 320 306 305
196 190 188 185 181 174 169 166 163 159 157 153 147 144 147 152 154 164 175 186 181 201 179 338 319 327 54 2 331 316 308 302
196 194 188 183 181 173 170 163 157 157 152 147 148 150 149 154 161 168 155 152 164 155 256 306 321 335 30 353 323 315 311 307
196 189 185 182 176 169 161 156 154 152 150 149 150 151 150 158 166 142 143 166 215 354 337 334 333 321 339 317 317 316 314 308